Simultaneous Nadir Overpasses (SNOs) Predictions

Prediction of SNOs between NOAA-15 and METOP-C Satellite Orbit:

Table of predicted SNOs for the next 14.0 days since TLE Epoch: 10/15/2022
Index Date (NOAA-15) Time (NOAA-15) Lat,Lon (NOAA-15) SZA (NOAA-15 ) Date (METOP-C) Time (METOP-C) Lat,Lon (METOP-C) SZA (METOP-C ) Distance(km) Time Diff (sec)
1 10/17/2022 11:26:54 -81.06,-133.14 87.36 10/17/2022 11:25:39 -81.06,-133.09 87.39 1.04 75
2 10/17/2022 12:17:23 81.07, 34.13 92.65 10/17/2022 12:16:19 81.05, 34.15 92.62 1.59 64
3 10/17/2022 13:07:55 -81.05,-158.17 87.32 10/17/2022 13:07:00 -81.06,-158.19 87.33 1.50 55
4 10/17/2022 13:58:24 81.06, 9.10 92.69 10/17/2022 13:57:40 81.06, 9.05 92.67 1.02 44
5 10/17/2022 14:48:57 -81.06, 176.42 87.30 10/17/2022 14:48:22 -81.06, 176.34 87.32 1.38 35
6 10/17/2022 15:39:26 81.06, -16.30 92.71 10/17/2022 15:39:02 81.06, -16.42 92.68 2.18 24
7 10/17/2022 16:29:59 -81.06, 151.01 87.29 10/17/2022 16:29:44 -81.05, 150.87 87.31 2.70 15
8 10/17/2022 17:20:28 81.07, -41.70 92.73 10/17/2022 17:20:23 81.07, -41.52 92.74 3.19 5
9 10/17/2022 18:11:01 -81.07, 125.61 87.27 10/17/2022 18:11:05 -81.06, 125.77 87.26 2.93 4
10 10/17/2022 19:01:29 81.08, -67.11 92.74 10/17/2022 19:01:44 81.06, -66.99 92.75 2.56 15
11 10/17/2022 19:52:01 -81.06, 100.57 87.23 10/17/2022 19:52:25 -81.07, 100.67 87.20 2.16 24
12 10/17/2022 20:42:30 81.07, -92.14 92.78 10/17/2022 20:43:05 81.07, -92.09 92.81 0.89 35
13 10/17/2022 21:33:03 -81.07, 75.17 87.21 10/17/2022 21:33:47 -81.07, 75.20 87.19 0.62 44
14 10/17/2022 22:23:32 81.07,-117.54 92.80 10/17/2022 22:24:27 81.06,-117.57 92.81 0.94 55
15 10/17/2022 23:14:05 -81.07, 49.76 87.20 10/17/2022 23:15:09 -81.06, 49.73 87.18 1.34 64



Historial Predications of SNOs between NOAA-15 and METOP-C
